| time (UTC) | temp C | wind direction | speed KPH | gust KPH | rain 1hr cm | rain 24hr cm | rain mn cm | humidity % | barometer mb |
| 20260502210440 | 18 | 319 | 8.0 | 11.3 | 0.00 | 0.00 | 0.00 | 32 | 1019.8 |
| 20260502205937 | 18 | 20 | 6.4 | 6.4 | 0.00 | 0.00 | 0.00 | 33 | 1020.1 |
| 20260502205433 | 18 | 327 | 6.4 | 6.4 | 0.00 | 0.00 | 0.00 | 32 | 1019.9 |
| 20260502204931 | 18 | 328 | 9.7 | 12.9 | 0.00 | 0.00 | 0.00 | 33 | 1020.0 |
| 20260502204427 | 18 | 272 | 3.2 | 4.8 | 0.00 | 0.00 | 0.00 | 33 | 1020.1 |
| 20260502203926 | 18 | 253 | 8.0 | 11.3 | 0.00 | 0.00 | 0.00 | 35 | 1020.2 |
| 20260502203423 | 18 | 213 | 6.4 | 9.7 | 0.00 | 0.00 | 0.00 | 34 | 1020.0 |
| 20260502202918 | 18 | 273 | 4.8 | 6.4 | 0.00 | 0.00 | 0.00 | 35 | 1020.1 |
| 20260502202416 | 18 | 315 | 9.7 | 12.9 | 0.00 | 0.00 | 0.00 | 33 | 1020.1 |
| 20260502201914 | 18 | 26 | 4.8 | 4.8 | 0.00 | 0.00 | 0.00 | 33 | 1020.4 |
| 20260502201409 | 18 | 266 | 8.0 | 11.3 | 0.00 | 0.00 | 0.00 | 34 | 1020.4 |
| 20260502200906 | 18 | 357 | 9.7 | 12.9 | 0.00 | 0.00 | 0.00 | 34 | 1020.4 |
| 20260502200401 | 18 | 2 | 8.0 | 11.3 | 0.00 | 0.00 | 0.00 | 34 | 1020.3 |
| 20260502195900 | 18 | 51 | 8.0 | 11.3 | 0.00 | 0.00 | 0.00 | 33 | 1020.3 |
| 20260502195356 | 18 | 245 | 4.8 | 6.4 | 0.00 | 0.00 | 0.00 | 35 | 1020.3 |
| 20260502194853 | 18 | 287 | 8.0 | 11.3 | 0.00 | 0.00 | 0.00 | 37 | 1020.5 |
| 20260502194350 | 18 | 354 | 8.0 | 9.7 | 0.00 | 0.00 | 0.00 | 34 | 1020.4 |
| 20260502193845 | 18 | 266 | 6.4 | 9.7 | 0.00 | 0.00 | 0.00 | 36 | 1020.4 |
| 20260502193343 | 18 | 344 | 4.8 | 11.3 | 0.00 | 0.00 | 0.00 | 34 | 1020.4 |
| 20260502192838 | 18 | 310 | 8.0 | 11.3 | 0.00 | 0.00 | 0.00 | 36 | 1020.4 |
| 20260502192336 | 17 | 354 | 20.9 | 29.0 | 0.00 | 0.00 | 0.00 | 36 | 1020.5 |
| 20260502191833 | 17 | 351 | 6.4 | 6.4 | 0.00 | 0.00 | 0.00 | 38 | 1020.4 |
| 20260502191331 | 18 | 204 | 4.8 | 9.7 | 0.00 | 0.00 | 0.00 | 38 | 1020.6 |
| 20260502190828 | 17 | 308 | 6.4 | 6.4 | 0.00 | 0.00 | 0.00 | 37 | 1020.4 |
| 20260502190325 | 18 | 334 | 9.7 | 14.5 | 0.00 | 0.00 | 0.00 | 37 | 1020.6 |
| 20260502185820 | 18 | 287 | 4.8 | 6.4 | 0.00 | 0.00 | 0.00 | 36 | 1020.7 |
| 20260502185316 | 18 | 190 | 3.2 | 4.8 | 0.00 | 0.00 | 0.00 | 38 | 1020.7 |
| 20260502184814 | 18 | 20 | 9.7 | 12.9 | 0.00 | 0.00 | 0.00 | 37 | 1020.7 |
| 20260502184309 | 17 | 217 | 3.2 | 3.2 | 0.00 | 0.00 | 0.00 | 37 | 1020.7 |
| 20260502183806 | 17 | 265 | 4.8 | 4.8 | 0.00 | 0.00 | 0.00 | 38 | 1020.7 |
| 20260502183301 | 17 | 342 | 4.8 | 6.4 | 0.00 | 0.00 | 0.00 | 38 | 1020.8 |
| 20260502182757 | 17 | 208 | 14.5 | 20.9 | 0.00 | 0.00 | 0.00 | 39 | 1020.9 |
| 20260502182253 | 17 | 279 | 4.8 | 11.3 | 0.00 | 0.00 | 0.00 | 38 | 1020.9 |
| 20260502181749 | 17 | 12 | 8.0 | 11.3 | 0.00 | 0.00 | 0.00 | 38 | 1020.8 |
| 20260502181243 | 17 | 274 | 4.8 | 6.4 | 0.00 | 0.00 | 0.00 | 39 | 1021.0 |
| 20260502180740 | 17 | 279 | 4.8 | 4.8 | 0.00 | 0.00 | 0.00 | 38 | 1021.1 |
| 20260502180237 | 17 | 270 | 3.2 | 4.8 | 0.00 | 0.00 | 0.00 | 38 | 1021.0 |
| 20260502170202 | 16 | 324 | 6.4 | 9.7 | 0.00 | 0.00 | 0.00 | 41 | 1021.8 |
| 20260502164148 | 16 | 31 | 9.7 | 12.9 | 0.00 | 0.00 | 0.00 | 41 | 1021.8 |
| 20260502163643 | 15 | 349 | 9.7 | 11.3 | 0.00 | 0.00 | 0.00 | 41 | 1021.7 |
| 20260502163141 | 16 | 340 | 8.0 | 11.3 | 0.00 | 0.00 | 0.00 | 40 | 1021.8 |
| 20260502162637 | 15 | 218 | 3.2 | 3.2 | 0.00 | 0.00 | 0.00 | 40 | 1021.9 |
| 20260502162134 | 15 | 357 | 11.3 | 12.9 | 0.00 | 0.00 | 0.00 | 40 | 1021.8 |
| 20260502161626 | 15 | 16 | 8.0 | 11.3 | 0.00 | 0.00 | 0.00 | 40 | 1021.8 |
| 20260502161123 | 15 | 358 | 14.5 | 16.1 | 0.00 | 0.00 | 0.00 | 38 | 1021.9 |
| 20260502160621 | 16 | 276 | 6.4 | 9.7 | 0.00 | 0.00 | 0.00 | 38 | 1021.8 |
| 20260502160119 | 16 | 29 | 6.4 | 6.4 | 0.00 | 0.00 | 0.00 | 38 | 1021.8 |
| 20260502152033 | 15 | 13 | 12.9 | 14.5 | 0.00 | 0.00 | 0.00 | 39 | 1021.6 |
| 20260502151531 | 14 | 25 | 14.5 | 16.1 | 0.00 | 0.00 | 0.00 | 41 | 1021.6 |
| 20260502151028 | 14 | 327 | 16.1 | 17.7 | 0.00 | 0.00 | 0.00 | 42 | 1021.8 |
| 20260502150525 | 14 | 359 | 6.4 | 6.4 | 0.00 | 0.00 | 0.00 | 45 | 1021.8 |
| 20260502130410 | 10 | 135 | 1.6 | 1.6 | 0.00 | 0.00 | 0.00 | 71 | 1021.1 |
| 20260502123352 | 9 | 181 | 0.0 | 0.0 | 0.00 | 0.00 | 0.00 | 76 | 1020.7 |
| 20260502122850 | 9 | 162 | 0.0 | 0.0 | 0.00 | 0.00 | 0.00 | 76 | 1020.7 |
| 20260502122345 | 9 | 137 | 1.6 | 1.6 | 0.00 | 0.00 | 0.00 | 75 | 1020.5 |
| 20260502121844 | 8 | 100 | 1.6 | 3.2 | 0.00 | 0.00 | 0.00 | 75 | 1020.6 |
| 20260502121341 | 8 | 68 | 3.2 | 3.2 | 0.00 | 0.00 | 0.00 | 76 | 1020.2 |
| 20260502120838 | 8 | 93 | 1.6 | 3.2 | 0.00 | 0.00 | 0.00 | 76 | 1020.1 |
| 20260502120334 | 8 | 104 | 0.0 | 0.0 | 0.00 | 0.00 | 0.00 | 76 | 1020.2 |
| 20260502115832 | 8 | 100 | 1.6 | 1.6 | 0.00 | 0.00 | 0.00 | 77 | 1020.1 |
| 20260502115329 | 8 | 104 | 1.6 | 1.6 | 0.00 | 0.00 | 0.00 | 77 | 1020.1 |
| 20260502114825 | 8 | 108 | 1.6 | 1.6 | 0.00 | 0.00 | 0.00 | 79 | 1020.1 |
| 20260502114322 | 7 | 132 | 0.0 | 1.6 | 0.00 | 0.00 | 0.00 | 81 | 1020.0 |
| 20260502113819 | 7 | 149 | 0.0 | 1.6 | 0.00 | 0.00 | 0.00 | 85 | 1020.2 |
| 20260502113317 | 7 | 150 | 0.0 | 0.0 | 0.00 | 0.00 | 0.00 | 87 | 1019.7 |
| 20260502112815 | 7 | 149 | 0.0 | 0.0 | 0.00 | 0.00 | 0.00 | 87 | 1020.0 |
| 20260502112312 | 7 | 149 | 0.0 | 0.0 | 0.00 | 0.00 | 0.00 | 88 | 1020.0 |
| 20260502111809 | 6 | 149 | 0.0 | 0.0 | 0.00 | 0.00 | 0.00 | 88 | 1019.7 |
| 20260502111307 | 7 | 149 | 0.0 | 0.0 | 0.00 | 0.00 | 0.00 | 87 | 1019.8 |
| 20260502110804 | 7 | 149 | 0.0 | 0.0 | 0.00 | 0.00 | 0.00 | 85 | 1019.6 |
| 20260502110302 | 7 | 149 | 0.0 | 0.0 | 0.00 | 0.00 | 0.00 | 84 | 1019.6 |
| 20260502105759 | 7 | 149 | 0.0 | 1.6 | 0.00 | 0.00 | 0.00 | 85 | 1019.5 |
| 20260502105255 | 7 | 151 | 0.0 | 0.0 | 0.00 | 0.00 | 0.00 | 84 | 1019.3 |
| 20260502104754 | 7 | 148 | 0.0 | 0.0 | 0.00 | 0.00 | 0.00 | 85 | 1019.5 |
| 20260502104251 | 7 | 126 | 1.6 | 1.6 | 0.00 | 0.00 | 0.00 | 84 | 1019.4 |
| 20260502103748 | 7 | 188 | 0.0 | 0.0 | 0.00 | 0.00 | 0.00 | 88 | 1019.3 |
| 20260502103245 | 7 | 188 | 0.0 | 0.0 | 0.00 | 0.00 | 0.00 | 88 | 1019.3 |
| 20260502102742 | 7 | 208 | 0.0 | 0.0 | 0.00 | 0.00 | 0.00 | 87 | 1019.2 |
| 20260502102239 | 7 | 209 | 1.6 | 1.6 | 0.00 | 0.00 | 0.00 | 88 | 1019.4 |
| 20260502101737 | 7 | 186 | 0.0 | 1.6 | 0.00 | 0.00 | 0.00 | 88 | 1019.3 |
| 20260502101235 | 8 | 185 | 0.0 | 0.0 | 0.00 | 0.00 | 0.00 | 87 | 1019.3 |
| 20260502100733 | 8 | 185 | 0.0 | 0.0 | 0.00 | 0.00 | 0.00 | 86 | 1019.3 |
| 20260502100231 | 8 | 185 | 1.6 | 1.6 | 0.00 | 0.00 | 0.00 | 86 | 1019.3 |
| 20260502091206 | 9 | 142 | 1.6 | 1.6 | 0.00 | 0.00 | 0.00 | 83 | 1018.9 |
| 20260502090703 | 8 | 133 | 0.0 | 1.6 | 0.00 | 0.00 | 0.00 | 88 | 1018.6 |
| 20260502090159 | 8 | 140 | 1.6 | 1.6 | 0.00 | 0.00 | 0.00 | 91 | 1018.5 |
| 20260502071055 | 7 | 177 | 0.0 | 0.0 | 0.00 | 0.00 | 0.00 | 94 | 1018.5 |
| 20260502070553 | 7 | 178 | 0.0 | 0.0 | 0.00 | 0.00 | 0.00 | 94 | 1018.4 |
| 20260502070050 | 7 | 179 | 0.0 | 0.0 | 0.00 | 0.00 | 0.00 | 94 | 1018.3 |
| 20260502065549 | 7 | 179 | 0.0 | 0.0 | 0.00 | 0.00 | 0.00 | 94 | 1018.6 |
| 20260502065046 | 7 | 179 | 0.0 | 0.0 | 0.00 | 0.00 | 0.00 | 94 | 1018.4 |
| 20260502064544 | 7 | 179 | 0.0 | 0.0 | 0.00 | 0.00 | 0.00 | 93 | 1018.4 |
| 20260502064041 | 7 | 179 | 0.0 | 0.0 | 0.00 | 0.00 | 0.00 | 93 | 1018.5 |
| 20260502063539 | 7 | 179 | 0.0 | 0.0 | 0.00 | 0.00 | 0.00 | 93 | 1018.5 |
| 20260502063036 | 7 | 179 | 0.0 | 0.0 | 0.00 | 0.00 | 0.00 | 93 | 1018.6 |
| 20260502062533 | 7 | 179 | 0.0 | 0.0 | 0.00 | 0.00 | 0.00 | 93 | 1018.5 |
| 20260502062032 | 7 | 179 | 0.0 | 0.0 | 0.00 | 0.00 | 0.00 | 93 | 1018.5 |
| 20260502061530 | 8 | 179 | 0.0 | 0.0 | 0.00 | 0.00 | 0.00 | 92 | 1018.6 |
| 20260502061026 | 8 | 179 | 0.0 | 1.6 | 0.00 | 0.00 | 0.00 | 92 | 1018.7 |
| 20260502060521 | 8 | 179 | 0.0 | 0.0 | 0.00 | 0.00 | 0.00 | 92 | 1018.7 |
| 20260502060018 | 8 | 179 | 0.0 | 0.0 | 0.00 | 0.00 | 0.00 | 92 | 1018.7 |
| 20260502055516 | 7 | 179 | 0.0 | 0.0 | 0.00 | 0.00 | 0.00 | 92 | 1018.5 |
| 20260502055015 | 7 | 178 | 0.0 | 0.0 | 0.00 | 0.00 | 0.00 | 91 | 1018.5 |
| 20260502054513 | 8 | 178 | 0.0 | 0.0 | 0.00 | 0.00 | 0.00 | 91 | 1018.5 |
| 20260502054010 | 8 | 179 | 0.0 | 0.0 | 0.00 | 0.00 | 0.00 | 92 | 1018.7 |
| 20260502053506 | 8 | 179 | 0.0 | 0.0 | 0.00 | 0.00 | 0.00 | 91 | 1018.6 |
| 20260502053005 | 8 | 179 | 0.0 | 0.0 | 0.00 | 0.00 | 0.00 | 91 | 1018.6 |
| 20260502052502 | 8 | 179 | 0.0 | 0.0 | 0.00 | 0.00 | 0.00 | 91 | 1018.5 |
| 20260502052000 | 8 | 179 | 0.0 | 0.0 | 0.00 | 0.00 | 0.00 | 90 | 1018.6 |
| 20260502051458 | 8 | 179 | 0.0 | 0.0 | 0.00 | 0.00 | 0.00 | 89 | 1018.8 |
| 20260502050955 | 8 | 179 | 0.0 | 0.0 | 0.00 | 0.00 | 0.00 | 88 | 1018.4 |
| 20260502050451 | 8 | 179 | 0.0 | 0.0 | 0.00 | 0.00 | 0.00 | 88 | 1018.4 |
| 20260502045949 | 9 | 180 | 0.0 | 0.0 | 0.00 | 0.00 | 0.00 | 87 | 1018.4 |
| 20260502045445 | 9 | 179 | 0.0 | 0.0 | 0.00 | 0.00 | 0.00 | 87 | 1018.5 |
| 20260502044942 | 9 | 158 | 0.0 | 0.0 | 0.00 | 0.00 | 0.00 | 86 | 1018.5 |
| 20260502044438 | 9 | 158 | 0.0 | 0.0 | 0.00 | 0.00 | 0.00 | 85 | 1018.4 |
| 20260502043935 | 10 | 158 | 0.0 | 0.0 | 0.00 | 0.00 | 0.00 | 83 | 1018.4 |
| 20260502043433 | 10 | 158 | 0.0 | 1.6 | 0.00 | 0.00 | 0.00 | 82 | 1018.4 |
| 20260502042932 | 10 | 143 | 0.0 | 0.0 | 0.00 | 0.00 | 0.00 | 81 | 1018.5 |
| 20260502042430 | 10 | 143 | 0.0 | 1.6 | 0.00 | 0.00 | 0.00 | 81 | 1018.5 |
| 20260502041927 | 10 | 143 | 0.0 | 0.0 | 0.00 | 0.00 | 0.00 | 82 | 1018.3 |
| 20260502041425 | 10 | 143 | 0.0 | 0.0 | 0.00 | 0.00 | 0.00 | 82 | 1018.6 |
| 20260502040921 | 10 | 143 | 0.0 | 0.0 | 0.00 | 0.00 | 0.00 | 80 | 1018.7 |
| 20260502040418 | 10 | 143 | 0.0 | 0.0 | 0.00 | 0.00 | 0.00 | 79 | 1018.6 |
| 20260502035914 | 10 | 165 | 1.6 | 1.6 | 0.00 | 0.00 | 0.00 | 80 | 1018.5 |
| 20260502035411 | 10 | 171 | 0.0 | 0.0 | 0.00 | 0.00 | 0.00 | 79 | 1018.6 |
| 20260502034908 | 11 | 171 | 0.0 | 0.0 | 0.00 | 0.00 | 0.00 | 78 | 1018.5 |
| 20260502034407 | 11 | 171 | 0.0 | 0.0 | 0.00 | 0.00 | 0.00 | 77 | 1018.7 |
| 20260502033905 | 11 | 171 | 0.0 | 0.0 | 0.00 | 0.00 | 0.00 | 75 | 1018.5 |
| 20260502033402 | 11 | 190 | 0.0 | 0.0 | 0.00 | 0.00 | 0.00 | 74 | 1018.6 |
| 20260502032859 | 11 | 190 | 0.0 | 0.0 | 0.00 | 0.00 | 0.00 | 73 | 1018.6 |
| 20260502032354 | 12 | 190 | 0.0 | 0.0 | 0.00 | 0.00 | 0.00 | 69 | 1018.4 |
| 20260502031853 | 11 | 190 | 0.0 | 0.0 | 0.00 | 0.00 | 0.00 | 68 | 1018.3 |
| 20260502031351 | 11 | 190 | 0.0 | 0.0 | 0.00 | 0.00 | 0.00 | 71 | 1018.4 |
| 20260502030848 | 11 | 190 | 0.0 | 0.0 | 0.00 | 0.00 | 0.00 | 70 | 1018.6 |
| 20260502030347 | 11 | 190 | 0.0 | 0.0 | 0.00 | 0.00 | 0.00 | 76 | 1018.5 |
| 20260502025844 | 11 | 191 | 1.6 | 1.6 | 0.00 | 0.00 | 0.00 | 75 | 1018.5 |
| 20260502025341 | 11 | 149 | 0.0 | 0.0 | 0.00 | 0.00 | 0.00 | 66 | 1018.3 |
| 20260502024839 | 11 | 147 | 0.0 | 0.0 | 0.00 | 0.00 | 0.00 | 69 | 1018.4 |
| 20260502024337 | 11 | 147 | 0.0 | 0.0 | 0.00 | 0.00 | 0.00 | 71 | 1018.5 |
| 20260502023834 | 11 | 147 | 0.0 | 0.0 | 0.00 | 0.00 | 0.00 | 71 | 1018.1 |
| 20260502023332 | 12 | 149 | 0.0 | 0.0 | 0.00 | 0.00 | 0.00 | 69 | 1018.3 |
| 20260502022830 | 12 | 149 | 0.0 | 0.0 | 0.00 | 0.00 | 0.00 | 67 | 1018.1 |
| 20260502022326 | 12 | 149 | 0.0 | 0.0 | 0.00 | 0.00 | 0.00 | 65 | 1017.9 |
| 20260502021822 | 13 | 147 | 0.0 | 0.0 | 0.00 | 0.00 | 0.00 | 61 | 1017.8 |
| 20260502021320 | 13 | 149 | 0.0 | 0.0 | 0.00 | 0.00 | 0.00 | 61 | 1017.9 |
| 20260502020817 | 13 | 149 | 1.6 | 1.6 | 0.00 | 0.00 | 0.00 | 61 | 1017.9 |
| 20260502020314 | 14 | 149 | 1.6 | 1.6 | 0.00 | 0.00 | 0.00 | 59 | 1017.2 |
| 20260502015811 | 13 | 146 | 0.0 | 0.0 | 0.00 | 0.00 | 0.00 | 59 | 1017.5 |
| 20260502015308 | 13 | 146 | 0.0 | 0.0 | 0.00 | 0.00 | 0.00 | 59 | 1017.5 |
| 20260502014806 | 13 | 148 | 0.0 | 0.0 | 0.00 | 0.00 | 0.00 | 59 | 1017.3 |
| 20260502014302 | 13 | 148 | 0.0 | 0.0 | 0.00 | 0.00 | 0.00 | 59 | 1017.3 |
| 20260502013758 | 13 | 148 | 0.0 | 0.0 | 0.00 | 0.00 | 0.00 | 59 | 1017.4 |
| 20260502013254 | 15 | 143 | 0.0 | 0.0 | 0.00 | 0.00 | 0.00 | 56 | 1017.3 |
| 20260502012751 | 15 | 148 | 0.0 | 0.0 | 0.00 | 0.00 | 0.00 | 53 | 1017.2 |
| 20260502012249 | 15 | 144 | 0.0 | 0.0 | 0.00 | 0.00 | 0.00 | 53 | 1017.3 |
| 20260502011746 | 13 | 144 | 0.0 | 0.0 | 0.00 | 0.00 | 0.00 | 56 | 1017.3 |
| 20260502011242 | 15 | 144 | 0.0 | 0.0 | 0.00 | 0.00 | 0.00 | 53 | 1017.3 |
| 20260502010740 | 15 | 147 | 0.0 | 0.0 | 0.00 | 0.00 | 0.00 | 51 | 1017.0 |
| 20260502010235 | 15 | 147 | 0.0 | 0.0 | 0.00 | 0.00 | 0.00 | 48 | 1017.2 |
| 20260502005733 | 16 | 147 | 0.0 | 0.0 | 0.00 | 0.00 | 0.00 | 46 | 1017.0 |
| 20260502005231 | 16 | 144 | 0.0 | 0.0 | 0.00 | 0.00 | 0.00 | 44 | 1017.0 |
| 20260502004727 | 16 | 147 | 1.6 | 1.6 | 0.00 | 0.00 | 0.00 | 42 | 1016.8 |
| 20260502004224 | 16 | 147 | 0.0 | 0.0 | 0.00 | 0.00 | 0.00 | 42 | 1016.7 |
| 20260502003721 | 17 | 149 | 0.0 | 1.6 | 0.00 | 0.00 | 0.00 | 41 | 1016.6 |
| 20260502003219 | 17 | 52 | 3.2 | 3.2 | 0.00 | 0.00 | 0.00 | 40 | 1016.5 |
| 20260502002714 | 17 | 62 | 4.8 | 6.4 | 0.00 | 0.00 | 0.00 | 39 | 1016.6 |
| 20260502002212 | 17 | 127 | 1.6 | 1.6 | 0.00 | 0.00 | 0.00 | 37 | 1016.6 |
| 20260502001709 | 17 | 177 | 1.6 | 1.6 | 0.00 | 0.00 | 0.00 | 38 | 1016.5 |
| 20260502001207 | 18 | 222 | 1.6 | 1.6 | 0.00 | 0.00 | 0.00 | 37 | 1016.3 |
| 20260502000704 | 18 | 76 | 3.2 | 4.8 | 0.00 | 0.00 | 0.00 | 37 | 1016.2 |
| 20260502000203 | 18 | 63 | 0.0 | 1.6 | 0.00 | 0.00 | 0.00 | 36 | 1016.4 |
| 20260501235658 | 18 | 300 | 3.2 | 4.8 | 0.00 | 0.00 | 0.00 | 36 | 1016.4 |
| 20260501235154 | 18 | 207 | 1.6 | 1.6 | 0.00 | 0.00 | 0.00 | 37 | 1016.3 |
| 20260501234649 | 18 | 294 | 3.2 | 4.8 | 0.00 | 0.00 | 0.00 | 36 | 1016.4 |
| 20260501234147 | 18 | 259 | 3.2 | 3.2 | 0.00 | 0.00 | 0.00 | 35 | 1016.2 |
| 20260501233645 | 18 | 202 | 1.6 | 1.6 | 0.00 | 0.00 | 0.00 | 35 | 1016.2 |
| 20260501233142 | 18 | 325 | 4.8 | 6.4 | 0.00 | 0.00 | 0.00 | 35 | 1016.4 |
| 20260501232638 | 18 | 27 | 6.4 | 9.7 | 0.00 | 0.00 | 0.00 | 35 | 1016.3 |
| 20260501232136 | 20 | 111 | 3.2 | 3.2 | 0.00 | 0.00 | 0.00 | 34 | 1016.4 |
| 20260501231633 | 19 | 205 | 1.6 | 1.6 | 0.00 | 0.00 | 0.00 | 34 | 1016.3 |
| 20260501231131 | 18 | 267 | 3.2 | 3.2 | 0.00 | 0.00 | 0.00 | 36 | 1016.3 |
| 20260501230629 | 18 | 138 | 4.8 | 6.4 | 0.00 | 0.00 | 0.00 | 36 | 1016.3 |
| 20260501230127 | 18 | 43 | 8.0 | 9.7 | 0.00 | 0.00 | 0.00 | 35 | 1016.4 |
| 20260501225624 | 18 | 107 | 3.2 | 3.2 | 0.00 | 0.00 | 0.00 | 36 | 1016.3 |
| 20260501225120 | 19 | 324 | 3.2 | 9.7 | 0.00 | 0.00 | 0.00 | 36 | 1016.3 |
| 20260501224618 | 18 | 205 | 1.6 | 3.2 | 0.00 | 0.00 | 0.00 | 34 | 1016.3 |
| 20260501224115 | 18 | 343 | 8.0 | 9.7 | 0.00 | 0.00 | 0.00 | 34 | 1016.1 |
| 20260501223611 | 18 | 347 | 4.8 | 4.8 | 0.00 | 0.00 | 0.00 | 35 | 1016.3 |
| 20260501223108 | 18 | 17 | 6.4 | 6.4 | 0.00 | 0.00 | 0.00 | 34 | 1016.1 |
| 20260501222604 | 18 | 19 | 11.3 | 12.9 | 0.00 | 0.00 | 0.00 | 34 | 1016.1 |
| 20260501222101 | 19 | 54 | 3.2 | 3.2 | 0.00 | 0.00 | 0.00 | 35 | 1016.3 |
| 20260501221557 | 18 | 67 | 11.3 | 12.9 | 0.00 | 0.00 | 0.00 | 35 | 1016.4 |
| 20260501221055 | 18 | 190 | 1.6 | 3.2 | 0.00 | 0.00 | 0.00 | 35 | 1016.1 |
| 20260501220553 | 18 | 48 | 11.3 | 12.9 | 0.00 | 0.00 | 0.00 | 36 | 1016.3 |
| 20260501220049 | 18 | 29 | 9.7 | 12.9 | 0.00 | 0.00 | 0.00 | 36 | 1016.4 |
| 20260501215545 | 18 | 20 | 6.4 | 9.7 | 0.00 | 0.00 | 0.00 | 35 | 1016.5 |
| 20260501215041 | 18 | 5 | 4.8 | 4.8 | 0.00 | 0.00 | 0.00 | 36 | 1016.5 |
| 20260501214536 | 18 | 47 | 3.2 | 4.8 | 0.00 | 0.00 | 0.00 | 36 | 1016.3 |
| 20260501214032 | 18 | 43 | 8.0 | 11.3 | 0.00 | 0.00 | 0.00 | 36 | 1016.4 |
| 20260501213530 | 20 | 19 | 3.2 | 3.2 | 0.00 | 0.00 | 0.00 | 34 | 1016.4 |
| 20260501213025 | 18 | 195 | 0.0 | 1.6 | 0.00 | 0.00 | 0.00 | 35 | 1016.5 |
| 20260501212522 | 20 | 171 | 0.0 | 1.6 | 0.00 | 0.00 | 0.00 | 31 | 1016.6 |
| 20260501212019 | 18 | 79 | 3.2 | 3.2 | 0.00 | 0.00 | 0.00 | 33 | 1016.9 |
| 20260501211516 | 18 | 89 | 4.8 | 4.8 | 0.00 | 0.00 | 0.00 | 34 | 1016.7 |
| 20260501211014 | 19 | 13 | 8.0 | 9.7 | 0.00 | 0.00 | 0.00 | 32 | 1016.9 |